TimeEDT,TemperatureF,Dew PointF,Humidity,Sea Level PressureIn,VisibilityMPH,Wind Direction,Wind SpeedMPH,Gust SpeedMPH,PrecipitationIn,Events,Conditions,WindDirDegrees,DateUTC
12:15 AM,41.5,14.2,33,30.17,10.0,North,4.6,-,N/A,,Clear,10,2013-04-03 04:15:00
12:35 AM,41.2,15.1,35,30.17,10.0,NNE,3.5,-,N/A,,Clear,20,2013-04-03 04:35:00
12:55 AM,40.5,15.1,36,30.17,10.0,Calm,Calm,-,N/A,,Clear,0,2013-04-03 04:55:00
1:15 AM,38.7,16.3,40,30.18,10.0,ESE,3.5,-,N/A,,Clear,120,2013-04-03 05:15:00
1:35 AM,39.4,15.1,37,30.18,10.0,Calm,Calm,-,N/A,,Clear,0,2013-04-03 05:35:00
1:55 AM,38.3,16.3,41,30.19,10.0,Calm,Calm,-,N/A,,Clear,0,2013-04-03 05:55:00
2:15 AM,37.9,17.1,43,30.19,10.0,Calm,Calm,-,N/A,,Clear,0,2013-04-03 06:15:00
2:35 AM,35.2,18.0,49,30.18,10.0,Calm,Calm,-,N/A,,Clear,0,2013-04-03 06:35:00
2:55 AM,35.8,16.7,46,30.18,10.0,Calm,Calm,-,N/A,,Clear,0,2013-04-03 06:55:00
3:15 AM,33.1,20.3,59,30.18,10.0,Calm,Calm,-,N/A,,Clear,0,2013-04-03 07:15:00
3:35 AM,33.1,19.8,58,30.18,10.0,Calm,Calm,-,N/A,,Clear,0,2013-04-03 07:35:00
3:55 AM,32.0,20.7,63,30.17,10.0,Calm,Calm,-,N/A,,Clear,0,2013-04-03 07:55:00
4:15 AM,32.0,19.6,60,30.18,10.0,Calm,Calm,-,N/A,,Clear,0,2013-04-03 08:15:00
4:35 AM,32.0,18.7,58,30.18,10.0,Calm,Calm,-,N/A,,Clear,0,2013-04-03 08:35:00
4:55 AM,30.7,21.4,68,30.19,10.0,Calm,Calm,-,N/A,,Clear,0,2013-04-03 08:55:00
5:15 AM,31.3,20.1,63,30.20,10.0,Calm,Calm,-,N/A,,Clear,0,2013-04-03 09:15:00
5:35 AM,31.1,20.5,65,30.20,10.0,Calm,Calm,-,N/A,,Clear,0,2013-04-03 09:35:00
5:55 AM,30.6,20.3,66,30.19,10.0,NE,3.5,-,N/A,,Clear,50,2013-04-03 09:55:00
6:15 AM,32.0,19.2,59,30.19,10.0,East,4.6,-,N/A,,Clear,90,2013-04-03 10:15:00
6:35 AM,33.8,18.1,53,30.19,10.0,NE,4.6,-,N/A,,Clear,50,2013-04-03 10:35:00
6:55 AM,34.3,17.6,50,30.20,10.0,NE,4.6,-,N/A,,Clear,50,2013-04-03 10:55:00
7:15 AM,33.1,18.3,55,30.21,10.0,East,3.5,-,N/A,,Clear,80,2013-04-03 11:15:00
7:35 AM,31.1,19.6,62,30.23,10.0,East,3.5,-,N/A,,Scattered Clouds,80,2013-04-03 11:35:00
7:55 AM,33.6,18.9,55,30.25,10.0,ENE,4.6,-,N/A,,Scattered Clouds,70,2013-04-03 11:55:00
8:15 AM,34.7,22.1,60,30.25,10.0,ESE,4.6,-,N/A,,Clear,110,2013-04-03 12:15:00
8:35 AM,36.5,20.7,53,30.26,10.0,ESE,4.6,-,N/A,,Clear,120,2013-04-03 12:35:00
8:55 AM,37.0,19.8,50,30.27,10.0,East,6.9,-,N/A,,Clear,90,2013-04-03 12:55:00
9:15 AM,38.5,20.7,49,30.27,10.0,East,6.9,-,N/A,,Clear,80,2013-04-03 13:15:00
9:35 AM,39.4,18.9,44,30.27,10.0,East,5.8,-,N/A,,Clear,100,2013-04-03 13:35:00
9:55 AM,40.3,19.4,43,30.27,10.0,ESE,8.1,-,N/A,,Clear,110,2013-04-03 13:55:00
10:15 AM,41.0,18.7,41,30.28,10.0,ENE,4.6,-,N/A,,Clear,60,2013-04-03 14:15:00
10:35 AM,42.1,18.3,39,30.28,10.0,ENE,3.5,-,N/A,,Clear,60,2013-04-03 14:35:00
10:55 AM,42.6,18.9,39,30.28,10.0,ENE,5.8,-,N/A,,Clear,60,2013-04-03 14:55:00
11:15 AM,43.5,19.0,38,30.27,10.0,ENE,3.5,-,N/A,,Clear,60,2013-04-03 15:15:00
11:35 AM,44.8,20.1,37,30.26,10.0,East,8.1,-,N/A,,Clear,80,2013-04-03 15:35:00
11:55 AM,45.0,19.4,36,30.25,10.0,East,5.8,-,N/A,,Clear,80,2013-04-03 15:55:00
12:15 PM,46.2,19.9,35,30.25,10.0,Calm,Calm,-,N/A,,Clear,0,2013-04-03 16:15:00
12:35 PM,47.1,21.6,36,30.25,10.0,SSE,4.6,-,N/A,,Clear,150,2013-04-03 16:35:00
12:55 PM,46.9,20.1,35,30.25,10.0,East,5.8,-,N/A,,Clear,100,2013-04-03 16:55:00
1:15 PM,48.4,20.8,34,30.24,10.0,Calm,Calm,-,N/A,,Clear,0,2013-04-03 17:15:00
1:35 PM,48.7,21.6,34,30.24,10.0,SE,5.8,-,N/A,,Clear,130,2013-04-03 17:35:00
1:55 PM,50.7,22.6,33,30.24,10.0,SSE,4.6,-,N/A,,Clear,160,2013-04-03 17:55:00
2:15 PM,50.2,19.8,30,30.23,10.0,Calm,Calm,-,N/A,,Clear,0,2013-04-03 18:15:00
2:35 PM,51.4,19.4,28,30.23,10.0,NW,4.6,-,N/A,,Clear,320,2013-04-03 18:35:00
2:55 PM,52.0,20.1,29,30.23,10.0,Calm,Calm,-,N/A,,Clear,0,2013-04-03 18:55:00
3:15 PM,51.8,19.2,28,30.24,10.0,NNW,6.9,-,N/A,,Clear,330,2013-04-03 19:15:00
3:35 PM,52.3,18.7,27,30.24,10.0,NNE,4.6,-,N/A,,Clear,20,2013-04-03 19:35:00
3:55 PM,52.7,19.8,27,30.25,10.0,West,5.8,-,N/A,,Clear,280,2013-04-03 19:55:00
4:15 PM,52.3,18.0,26,30.24,10.0,NNW,5.8,-,N/A,,Clear,330,2013-04-03 20:15:00
4:35 PM,52.9,19.2,27,30.24,10.0,NNW,6.9,-,N/A,,Clear,340,2013-04-03 20:35:00
4:55 PM,52.3,18.9,27,30.24,10.0,NNW,6.9,-,N/A,,Clear,340,2013-04-03 20:55:00
5:15 PM,52.2,18.1,26,30.24,10.0,North,4.6,-,N/A,,Clear,360,2013-04-03 21:15:00
5:35 PM,52.0,18.5,27,30.24,10.0,NNW,5.8,-,N/A,,Clear,330,2013-04-03 21:35:00
5:55 PM,51.8,18.1,27,30.25,10.0,NNW,6.9,-,N/A,,Clear,340,2013-04-03 21:55:00
6:15 PM,51.3,16.0,25,30.24,10.0,NNE,3.5,-,N/A,,Clear,20,2013-04-03 22:15:00
6:35 PM,50.9,16.7,26,30.24,10.0,NE,3.5,-,N/A,,Clear,40,2013-04-03 22:35:00
6:55 PM,50.5,17.1,27,30.23,10.0,NE,4.6,-,N/A,,Clear,50,2013-04-03 22:55:00
7:15 PM,49.8,17.6,28,30.23,10.0,NE,3.5,-,N/A,,Clear,40,2013-04-03 23:15:00
7:35 PM,49.1,17.8,29,30.23,10.0,Calm,Calm,-,N/A,,Clear,0,2013-04-03 23:35:00
7:55 PM,48.6,17.6,29,30.23,10.0,NE,3.5,-,N/A,,Clear,50,2013-04-03 23:55:00
8:15 PM,48.2,18.3,31,30.23,10.0,NE,3.5,-,N/A,,Clear,50,2013-04-04 00:15:00
8:35 PM,47.5,17.6,30,30.23,10.0,NE,4.6,-,N/A,,Clear,50,2013-04-04 00:35:00
8:55 PM,47.1,17.1,30,30.23,10.0,NE,3.5,-,N/A,,Clear,50,2013-04-04 00:55:00
9:15 PM,46.6,17.2,31,30.24,10.0,ENE,4.6,-,N/A,,Clear,60,2013-04-04 01:15:00
9:35 PM,46.2,17.6,32,30.25,10.0,East,4.6,-,N/A,,Clear,80,2013-04-04 01:35:00
9:55 PM,45.1,18.9,35,30.25,10.0,East,5.8,-,N/A,,Clear,100,2013-04-04 01:55:00
10:15 PM,44.8,19.9,37,30.27,10.0,ESE,3.5,-,N/A,,Clear,110,2013-04-04 02:15:00
10:35 PM,43.9,18.7,37,30.27,10.0,East,5.8,-,N/A,,Clear,80,2013-04-04 02:35:00
10:55 PM,44.8,16.5,32,30.26,10.0,ENE,6.9,-,N/A,,Clear,70,2013-04-04 02:55:00
11:15 PM,44.8,16.9,33,30.25,10.0,ENE,8.1,-,N/A,,Clear,70,2013-04-04 03:15:00
11:35 PM,44.6,17.2,33,30.25,10.0,East,9.2,-,N/A,,Clear,90,2013-04-04 03:35:00
11:55 PM,44.1,17.1,34,30.25,10.0,East,8.1,-,N/A,,Clear,80,2013-04-04 03:55:00